Regional Weather Roundup
Issued by NWS

Home | Current Version | Previous Version | Text Only | Print | Product List | Glossary On
Versions: 1 2 3 4 5 6 7 8 9 10 11 12 13 14 15 16 17 18 19 20 21 22 23 24 25 26 27 28 29 30 31 32 33 34 35 36 37 38 39 40 41 42 43 44 45 46 47 48 49 50
000
ASUS46 KSEW 290610
RWRWA

WASHINGTON REGIONAL WEATHER ROUNDUP
NATIONAL WEATHER SERVICE SEATTLE WA
1100 PM PDT SAT MAR 28 2015

NOTE:"FAIR" INDICATES FEW OR NO CLOUDS BELOW 12,000 FEET WITH NO
SIGNIFICANT WEATHER AND/OR OBSTRUCTIONS TO VISIBILITY.

WAZ505-507>509-290700-
SEATTLE, TACOMA, EVERETT, AND VICINITY

CITY           SKY/WX    TMP DP  RH WIND       PRES   REMARKS
EVERETT        CLOUDY    52  38  58 S12       30.33R
6HR MIN TEMP:  52; 6HR MAX TEMP:  58;

BOEING FIELD   CLOUDY    54  40  59 VRB6      30.34S
6HR MIN TEMP:  54; 6HR MAX TEMP:  60;

RENTON         CLOUDY    54  40  59 S6        30.34S
6HR MIN TEMP:  54; 6HR MAX TEMP:  60;

SEATAC AIRPORT CLOUDY    51  40  65 SW6       30.35S
6HR MIN TEMP:  51; 6HR MAX TEMP:  56;

JBLM-MCCHORD   CLOUDY    51  45  78 CALM      30.34S
6HR MIN TEMP:  49; 6HR MAX TEMP:  58;

PUYALLUP       CLOUDY    46  46 100 CALM      30.35R
BREMERTON      CLOUDY    48  43  81 S7        30.35R
6HR MIN TEMP:  48; 6HR MAX TEMP:  55;

JBLM-FT LEWIS  NOT AVBL
TACOMA NARROWS CLOUDY    50  41  71 S3        30.35S
6HR MIN TEMP:  50; 6HR MAX TEMP:  56;

$$

WAZ001-503-506-510-514-515-290700-
NORTH INTERIOR

CITY           SKY/WX    TMP DP  RH WIND       PRES   REMARKS
BELLINGHAM     CLOUDY    54  39  57 SE14G20   30.28S
6HR MIN TEMP:  52; 6HR MAX TEMP:  56; 6HR PCP: TRACE;

FRIDAY HARBOR  LGT RAIN  48  46  93 CALM      30.30S
6HR MIN TEMP:  48; 6HR MAX TEMP:  57;

EASTSOUND      LGT RAIN  52  45  76 S5        30.27S
PORT ANGELES   CLOUDY    49  45  86 CALM      30.29F
6HR MIN TEMP:  48; 6HR MAX TEMP:  53;

NAS WHIDBEY    CLOUDY    54  41  61 SE8       30.31R
6HR MIN TEMP:  51; 6HR MAX TEMP:  58; 6HR PCP: TRACE;

ARLINGTON      CLOUDY    54  43  66 SE12      30.34R
6HR MIN TEMP:  54; 6HR MAX TEMP:  61;

BURLINGTON     CLOUDY    54  43  66 MISG      30.31S
$$

WAZ020-022-039-040-504-511-512-290700-
SOUTHWEST INTERIOR

CITY           SKY/WX    TMP DP  RH WIND       PRES   REMARKS
SHELTON        CLOUDY    49  43  80 SW6       30.33R
6HR MIN TEMP:  48; 6HR MAX TEMP:  55;

OLYMPIA        CLOUDY    47  42  83 CALM      30.35R
6HR MIN TEMP:  46; 6HR MAX TEMP:  58;

CHEHALIS       FAIR      46  45  93 CALM      30.35R
KELSO          CLOUDY    48  43  81 CALM      30.38S
6HR MIN TEMP:  48; 6HR MAX TEMP:  61;

VANCOUVER      CLOUDY    52  42  69 NW3       30.33R
6HR MIN TEMP:  48; 6HR MAX TEMP:  60;

SCAPPOOSE, OR  CLOUDY    50  44  80 NW3       30.33R
6HR MIN TEMP:  49; 6HR MAX TEMP:  61;

PORTLAND, OR   CLOUDY    52  44  74 E3        30.34R
6HR MIN TEMP:  50; 6HR MAX TEMP:  61;

$$

WAZ021-516-517-290700-
WASHINGTON COAST

CITY           SKY/WX    TMP DP  RH WIND       PRES   REMARKS
FORKS          LGT RAIN  49  48  97 SE9G17    30.28S FOG
6HR MIN TEMP:  49; 6HR MAX TEMP:  51; 6HR PCP:  0.27;

HOQUIAM        CLOUDY    51  47  86 E7        30.33S
6HR MIN TEMP:  51; 6HR MAX TEMP:  54;

ASTORIA, OR    CLOUDY    50  45  83 SE3       30.34R
6HR MIN TEMP:  50; 6HR MAX TEMP:  55;

$$

WAZ019-023-024-040-518-519-290700-
CASCADE MOUNTAINS AND COLUMBIA GORGE

CITY           SKY/WX    TMP DP  RH WIND       PRES   REMARKS
TROUTDALE, OR  MOCLDY    51  43  74 E3        30.33R
6HR MIN TEMP:  50; 6HR MAX TEMP:  62;

THE DALLES, OR MOCLDY    53  39  59 W6        30.31S
6HR MIN TEMP:  53; 6HR MAX TEMP:  63;

$$

WAZ026-027-041>044-520-521-290700-
EAST SLOPES

CITY           SKY/WX    TMP DP  RH WIND       PRES   REMARKS
OMAK           CLOUDY    48  32  53 CALM      30.22S
6HR MIN TEMP:  48; 6HR MAX TEMP:  64;

WENATCHEE      CLOUDY    52  35  52 W8        30.27R
6HR MIN TEMP:  52; 6HR MAX TEMP:  62;

ELLENSBURG     MOCLDY    47  39  74 NW8       30.28R
6HR MIN TEMP:  46; 6HR MAX TEMP:  58;

YAKIMA         MOCLDY    53  37  54 NE5       30.29R
6HR MIN TEMP:  50; 6HR MAX TEMP:  67;

$$

WAZ028-034-035-290700-
COLUMBIA BASIN

CITY           SKY/WX    TMP DP  RH WIND       PRES   REMARKS
EPHRATA        CLOUDY    54  32  43 W7        30.26R
6HR MIN TEMP:  50; 6HR MAX TEMP:  62;

MOSES LAKE     CLOUDY    50  36  58 CALM      30.28R
6HR MIN TEMP:  48; 6HR MAX TEMP:  63;

PASCO          CLEAR     49  38  65 SW5       30.30S
6HR MIN TEMP:  49; 6HR MAX TEMP:  66;

HERMISTON, OR  CLEAR     47  37  68 S12       30.31R
6HR MIN TEMP:  46; 6HR MAX TEMP:  63;

$$

WAZ036>038-290700-
NORTHEAST WASHINGTON

CITY           SKY/WX    TMP DP  RH WIND       PRES   REMARKS
SPOKANE GEIGER CLEAR     45  35  68 S10       30.28R
6HR MIN TEMP:  44; 6HR MAX TEMP:  56;

SPOKANE FELTS  CLEAR     44  35  70 CALM      30.30R
6HR MIN TEMP:  42; 6HR MAX TEMP:  59;

FAIRCHILD AFB  CLEAR     42  34  71 SE6       30.28R
6HR MIN TEMP:  41; 6HR MAX TEMP:  55; 6HR PCP: TRACE;

COEURDALENE,ID PTCLDY    46  34  61 S10       30.29R
6HR MIN TEMP:  46; 6HR MAX TEMP:  54;

DEER PARK      CLEAR     41  33  73 S9        30.28R
6HR MIN TEMP:  41; 6HR MAX TEMP:  58;

$$

WAZ029>033-290700-
SOUTHEAST WASHINGTON

CITY           SKY/WX    TMP DP  RH WIND       PRES   REMARKS
PULLMAN        CLEAR     39  33  79 CALM      30.33R
6HR MIN TEMP:  39; 6HR MAX TEMP:  52;

LEWISTON, ID   CLEAR     47  34  60 CALM      30.33R
6HR MIN TEMP:  45; 6HR MAX TEMP:  60;

WALLA WALLA    CLEAR     51  36  56 SE9       30.31F
6HR MIN TEMP:  51; 6HR MAX TEMP:  62;

PENDLETON, OR  CLEAR     42  36  79 SE8       30.31S
6HR MIN TEMP:  42; 6HR MAX TEMP:  59;

$$



USA.gov is the U.S. government's official web portal to all federal, state and local government web resources and services.